| time (UTC) | temp F | wind direction | speed MPH | gust MPH | rain 1hr in | rain 24hr in | rain mn in | humidity % | barometer mb |
| 20260505165243 | 54 | 30 | 4.0 | 9.0 | 0.00 | 0.55 | 0.05 | 83 | 1008.9 |
| 20260505164759 | 54 | 48 | 4.0 | 11.0 | 0.00 | 0.55 | 0.05 | 83 | 1009.0 |
| 20260505164250 | 54 | 48 | 5.0 | 11.0 | 0.00 | 0.55 | 0.05 | 83 | 1009.1 |
| 20260505163740 | 54 | 39 | 5.0 | 9.0 | 0.00 | 0.55 | 0.05 | 83 | 1009.3 |
| 20260505163241 | 54 | 48 | 4.0 | 11.0 | 0.00 | 0.55 | 0.05 | 84 | 1009.2 |
| 20260505162741 | 54 | 16 | 5.0 | 11.0 | 0.00 | 0.55 | 0.05 | 83 | 1009.1 |
| 20260505162241 | 54 | 49 | 6.0 | 10.0 | 0.00 | 0.55 | 0.05 | 84 | 1009.2 |
| 20260505161742 | 54 | 41 | 4.0 | 6.0 | 0.00 | 0.56 | 0.05 | 84 | 1009.2 |
| 20260505161243 | 53 | 38 | 4.0 | 11.0 | 0.00 | 0.57 | 0.05 | 84 | 1009.2 |
| 20260505160754 | 53 | 48 | 4.0 | 11.0 | 0.00 | 0.57 | 0.05 | 84 | 1009.2 |
| 20260505160242 | 53 | 44 | 6.0 | 11.0 | 0.00 | 0.57 | 0.05 | 85 | 1009.2 |
| 20260505153242 | 53 | 31 | 5.0 | 9.0 | 0.00 | 0.60 | 0.05 | 84 | 1009.3 |
| 20260505152740 | 53 | 32 | 5.0 | 9.0 | 0.00 | 0.60 | 0.05 | 85 | 1009.2 |
| 20260505152240 | 53 | 7 | 4.0 | 9.0 | 0.00 | 0.61 | 0.05 | 85 | 1009.3 |
| 20260505151740 | 53 | 27 | 4.0 | 10.0 | 0.00 | 0.62 | 0.05 | 85 | 1009.4 |
| 20260505151240 | 53 | 30 | 6.0 | 12.0 | 0.00 | 0.62 | 0.05 | 85 | 1009.6 |
| 20260505150741 | 53 | 41 | 6.0 | 12.0 | 0.00 | 0.63 | 0.05 | 86 | 1009.5 |
| 20260505150240 | 53 | 55 | 6.0 | 12.0 | 0.00 | 0.63 | 0.05 | 86 | 1009.4 |
| 20260505140239 | 53 | 62 | 5.0 | 10.0 | 0.00 | 0.65 | 0.05 | 87 | 1009.7 |
| 20260505124738 | 53 | 16 | 6.0 | 14.0 | 0.00 | 0.65 | 0.05 | 87 | 1010.1 |
| 20260505124236 | 52 | 34 | 8.0 | 14.0 | 0.00 | 0.65 | 0.05 | 87 | 1010.1 |
| 20260505123736 | 52 | 35 | 8.0 | 14.0 | 0.00 | 0.65 | 0.05 | 88 | 1010.1 |
| 20260505123236 | 52 | 30 | 7.0 | 13.0 | 0.00 | 0.65 | 0.05 | 88 | 1010.2 |
| 20260505122736 | 52 | 48 | 5.0 | 11.0 | 0.00 | 0.65 | 0.05 | 88 | 1010.2 |
| 20260505122556 | 52 | 35 | 6.0 | 16.0 | 0.00 | 0.65 | 0.05 | 89 | 1010.3 |
| 20260505121735 | 52 | 38 | 6.0 | 16.0 | 0.00 | 0.65 | 0.05 | 89 | 1010.2 |
| 20260505121240 | 51 | 38 | 7.0 | 15.0 | 0.00 | 0.65 | 0.05 | 89 | 1010.3 |
| 20260505121040 | 51 | 32 | 6.0 | 16.0 | 0.00 | 0.65 | 0.05 | 89 | 1010.2 |
| 20260505120237 | 51 | 41 | 6.0 | 16.0 | 0.00 | 0.65 | 0.05 | 89 | 1010.4 |
| 20260505115734 | 51 | 68 | 8.0 | 13.0 | 0.00 | 0.65 | 0.05 | 90 | 1010.4 |
| 20260505115252 | 51 | 28 | 7.0 | 13.0 | 0.00 | 0.65 | 0.05 | 89 | 1010.4 |
| 20260505114733 | 51 | 34 | 6.0 | 11.0 | 0.00 | 0.65 | 0.05 | 90 | 1010.3 |
| 20260505114259 | 51 | 34 | 7.0 | 11.0 | 0.00 | 0.65 | 0.05 | 90 | 1010.4 |
| 20260505113734 | 51 | 35 | 5.0 | 11.0 | 0.00 | 0.65 | 0.05 | 90 | 1010.4 |
| 20260505113233 | 51 | 41 | 6.0 | 15.0 | 0.00 | 0.65 | 0.05 | 90 | 1010.6 |
| 20260505112735 | 51 | 45 | 8.0 | 15.0 | 0.00 | 0.65 | 0.05 | 91 | 1010.5 |
| 20260505112234 | 50 | 45 | 7.0 | 13.0 | 0.00 | 0.65 | 0.05 | 91 | 1010.5 |
| 20260505111733 | 50 | 37 | 7.0 | 13.0 | 0.00 | 0.65 | 0.05 | 91 | 1010.6 |
| 20260505111236 | 50 | 52 | 8.0 | 13.0 | 0.00 | 0.65 | 0.05 | 91 | 1010.7 |
| 20260505110733 | 50 | 27 | 4.0 | 9.0 | 0.00 | 0.65 | 0.05 | 91 | 1010.6 |
| 20260505110234 | 50 | 37 | 5.0 | 9.0 | 0.00 | 0.65 | 0.05 | 91 | 1010.6 |
| 20260505101730 | 50 | 48 | 5.0 | 7.0 | 0.00 | 0.65 | 0.05 | 92 | 1010.7 |
| 20260505101230 | 50 | 28 | 4.0 | 12.0 | 0.00 | 0.65 | 0.05 | 92 | 1010.9 |
| 20260505100730 | 50 | 65 | 6.0 | 13.0 | 0.00 | 0.65 | 0.05 | 91 | 1010.8 |
| 20260505100541 | 50 | 30 | 8.0 | 13.0 | 0.00 | 0.65 | 0.05 | 92 | 1010.8 |
| 20260505095745 | 50 | 38 | 6.0 | 14.0 | 0.00 | 0.65 | 0.05 | 92 | 1010.8 |
| 20260505095231 | 50 | 42 | 7.0 | 14.0 | 0.00 | 0.65 | 0.05 | 92 | 1010.8 |
| 20260505094732 | 50 | 82 | 8.0 | 14.0 | 0.00 | 0.65 | 0.05 | 92 | 1010.9 |
| 20260505094231 | 50 | 42 | 8.0 | 14.0 | 0.00 | 0.65 | 0.05 | 92 | 1010.8 |
| 20260505093732 | 50 | 58 | 6.0 | 14.0 | 0.00 | 0.65 | 0.05 | 92 | 1010.7 |
| 20260505093229 | 50 | 28 | 5.0 | 12.0 | 0.00 | 0.65 | 0.05 | 92 | 1010.7 |
| 20260505092730 | 50 | 34 | 6.0 | 12.0 | 0.00 | 0.65 | 0.05 | 92 | 1010.7 |
| 20260505092231 | 50 | 34 | 4.0 | 7.0 | 0.00 | 0.65 | 0.05 | 92 | 1010.8 |
| 20260505091731 | 50 | 61 | 4.0 | 10.0 | 0.00 | 0.65 | 0.05 | 92 | 1010.6 |
| 20260505091231 | 50 | 56 | 4.0 | 10.0 | 0.00 | 0.65 | 0.05 | 93 | 1010.7 |
| 20260505090730 | 50 | 0 | 5.0 | 10.0 | 0.00 | 0.65 | 0.05 | 92 | 1010.8 |
| 20260505090230 | 50 | 10 | 6.0 | 10.0 | 0.00 | 0.65 | 0.05 | 92 | 1010.8 |
| 20260505085730 | 50 | 28 | 4.0 | 9.0 | 0.00 | 0.65 | 0.05 | 92 | 1010.8 |
| 20260505085230 | 50 | 44 | 3.0 | 13.0 | 0.00 | 0.65 | 0.05 | 93 | 1010.9 |
| 20260505084731 | 50 | 11 | 7.0 | 13.0 | 0.00 | 0.65 | 0.05 | 93 | 1010.8 |
| 20260505084527 | 50 | 51 | 3.0 | 13.0 | 0.00 | 0.65 | 0.05 | 93 | 1010.9 |
| 20260505083730 | 50 | 49 | 8.0 | 13.0 | 0.00 | 0.65 | 0.05 | 93 | 1010.9 |
| 20260505083520 | 50 | 45 | 5.0 | 11.0 | 0.00 | 0.65 | 0.05 | 93 | 1010.9 |
| 20260505082730 | 50 | 28 | 4.0 | 10.0 | 0.00 | 0.65 | 0.05 | 93 | 1010.8 |
| 20260505082231 | 50 | 62 | 6.0 | 7.0 | 0.00 | 0.65 | 0.05 | 93 | 1010.9 |
| 20260505081728 | 50 | 44 | 6.0 | 11.0 | 0.00 | 0.65 | 0.05 | 93 | 1010.8 |
| 20260505081521 | 50 | 68 | 5.0 | 11.0 | 0.00 | 0.65 | 0.05 | 93 | 1010.9 |
| 20260505080730 | 50 | 44 | 4.0 | 10.0 | 0.00 | 0.65 | 0.05 | 93 | 1010.9 |
| 20260505080230 | 50 | 58 | 6.0 | 13.0 | 0.00 | 0.65 | 0.05 | 93 | 1010.8 |
| 20260505075729 | 50 | 17 | 6.0 | 13.0 | 0.00 | 0.65 | 0.05 | 93 | 1010.8 |
| 20260505075228 | 50 | 25 | 5.0 | 10.0 | 0.00 | 0.65 | 0.05 | 93 | 1010.8 |
| 20260505074730 | 50 | 52 | 3.0 | 13.0 | 0.00 | 0.65 | 0.05 | 93 | 1010.8 |
| 20260505074229 | 49 | 37 | 5.0 | 13.0 | 0.00 | 0.65 | 0.05 | 93 | 1010.9 |
| 20260505073730 | 50 | 32 | 8.0 | 13.0 | 0.00 | 0.65 | 0.05 | 93 | 1010.9 |
| 20260505073229 | 50 | 61 | 6.0 | 13.0 | 0.00 | 0.65 | 0.05 | 93 | 1010.9 |
| 20260505072728 | 50 | 31 | 7.0 | 12.0 | 0.00 | 0.65 | 0.05 | 93 | 1010.7 |
| 20260505072530 | 50 | 51 | 5.0 | 11.0 | 0.00 | 0.65 | 0.05 | 93 | 1010.7 |
| 20260505071728 | 50 | 28 | 4.0 | 12.0 | 0.00 | 0.65 | 0.05 | 93 | 1010.7 |
| 20260505071229 | 50 | 45 | 5.0 | 12.0 | 0.00 | 0.65 | 0.05 | 93 | 1010.7 |
| 20260505070727 | 50 | 23 | 6.0 | 10.0 | 0.00 | 0.65 | 0.05 | 93 | 1010.9 |
| 20260505070227 | 50 | 31 | 5.0 | 11.0 | 0.00 | 0.65 | 0.05 | 93 | 1010.8 |
| 20260505065742 | 50 | 34 | 4.0 | 11.0 | 0.00 | 0.65 | 0.05 | 93 | 1010.8 |
| 20260505065228 | 50 | 21 | 5.0 | 12.0 | 0.00 | 0.65 | 0.05 | 93 | 1010.9 |
| 20260505065036 | 50 | 32 | 5.0 | 12.0 | 0.00 | 0.65 | 0.05 | 93 | 1010.8 |
| 20260505064227 | 50 | 34 | 5.0 | 10.0 | 0.00 | 0.65 | 0.05 | 93 | 1010.8 |
| 20260505064023 | 50 | 18 | 4.0 | 10.0 | 0.00 | 0.65 | 0.05 | 93 | 1010.8 |
| 20260505063227 | 50 | 34 | 5.0 | 9.0 | 0.00 | 0.65 | 0.05 | 93 | 1010.9 |
| 20260505062726 | 50 | 27 | 3.0 | 9.0 | 0.00 | 0.65 | 0.05 | 93 | 1010.9 |
| 20260505062226 | 50 | 27 | 4.0 | 7.0 | 0.00 | 0.65 | 0.05 | 93 | 1011.0 |
| 20260505061726 | 50 | 49 | 4.0 | 10.0 | 0.00 | 0.65 | 0.05 | 93 | 1010.9 |
| 20260505061226 | 50 | 34 | 4.0 | 11.0 | 0.00 | 0.65 | 0.05 | 93 | 1010.9 |
| 20260505060739 | 50 | 30 | 4.0 | 12.0 | 0.00 | 0.65 | 0.05 | 93 | 1010.9 |
| 20260505060243 | 50 | 47 | 6.0 | 12.0 | 0.00 | 0.65 | 0.05 | 93 | 1010.8 |
| 20260505055727 | 50 | 42 | 6.0 | 12.0 | 0.00 | 0.65 | 0.05 | 93 | 1010.9 |
| 20260505055225 | 50 | 27 | 6.0 | 13.0 | 0.00 | 0.65 | 0.05 | 93 | 1010.9 |
| 20260505054726 | 51 | 31 | 7.0 | 13.0 | 0.00 | 0.65 | 0.05 | 93 | 1010.7 |
| 20260505054226 | 51 | 49 | 7.0 | 13.0 | 0.00 | 0.65 | 0.05 | 93 | 1010.7 |
| 20260505053724 | 51 | 7 | 4.0 | 10.0 | 0.00 | 0.65 | 0.05 | 93 | 1010.7 |
| 20260505053225 | 51 | 48 | 4.0 | 10.0 | 0.00 | 0.65 | 0.05 | 93 | 1010.8 |
| 20260505052726 | 51 | 0 | 6.0 | 10.0 | 0.00 | 0.65 | 0.05 | 93 | 1010.9 |
| 20260505052225 | 51 | 23 | 6.0 | 10.0 | 0.00 | 0.65 | 0.05 | 93 | 1010.8 |
| 20260505051726 | 51 | 42 | 5.0 | 12.0 | 0.00 | 0.65 | 0.05 | 93 | 1010.8 |
| 20260505051224 | 51 | 37 | 4.0 | 13.0 | 0.00 | 0.65 | 0.05 | 93 | 1010.8 |
| 20260505050724 | 51 | 42 | 6.0 | 13.0 | 0.00 | 0.65 | 0.05 | 93 | 1010.8 |
| 20260505050511 | 51 | 24 | 4.0 | 10.0 | 0.00 | 0.65 | 0.05 | 93 | 1010.8 |
| 20260505041724 | 52 | 4 | 3.0 | 11.0 | 0.00 | 0.65 | 0.05 | 92 | 1010.8 |
| 20260505041222 | 52 | 10 | 5.0 | 11.0 | 0.00 | 0.65 | 0.05 | 92 | 1010.7 |
| 20260505040723 | 51 | 44 | 6.0 | 10.0 | 0.00 | 0.65 | 0.05 | 92 | 1010.8 |
| 20260505040223 | 52 | 39 | 5.0 | 9.0 | 0.00 | 0.65 | 0.05 | 92 | 1010.8 |
| 20260505035722 | 52 | 34 | 5.0 | 10.0 | 0.00 | 0.65 | 0.05 | 92 | 1010.7 |
| 20260505035235 | 52 | 38 | 4.0 | 10.0 | 0.00 | 0.65 | 0.05 | 92 | 1010.7 |
| 20260505035023 | 52 | 38 | 4.0 | 11.0 | 0.00 | 0.65 | 0.05 | 92 | 1010.7 |
| 20260505034230 | 52 | 28 | 4.0 | 11.0 | 0.00 | 0.65 | 0.05 | 92 | 1010.7 |
| 20260505033721 | 52 | 27 | 6.0 | 11.0 | 0.00 | 0.65 | 0.05 | 92 | 1010.6 |
| 20260505033555 | 52 | 13 | 6.0 | 13.0 | 0.00 | 0.65 | 0.05 | 92 | 1010.6 |
| 20260505032738 | 52 | 28 | 6.0 | 13.0 | 0.00 | 0.65 | 0.05 | 92 | 1010.7 |
| 20260505032222 | 53 | 25 | 5.0 | 10.0 | 0.00 | 0.65 | 0.05 | 92 | 1010.7 |
| 20260505031722 | 53 | 24 | 5.0 | 14.0 | 0.00 | 0.65 | 0.05 | 92 | 1010.7 |
| 20260505031533 | 53 | 7 | 5.0 | 14.0 | 0.00 | 0.65 | 0.05 | 92 | 1010.6 |
| 20260505030721 | 53 | 24 | 5.0 | 11.0 | 0.00 | 0.65 | 0.05 | 92 | 1010.6 |
| 20260505030221 | 53 | 24 | 5.0 | 11.0 | 0.00 | 0.65 | 0.05 | 92 | 1010.8 |
| 20260505025721 | 53 | 24 | 7.0 | 11.0 | 0.00 | 0.65 | 0.05 | 92 | 1010.8 |
| 20260505025221 | 53 | 10 | 7.0 | 11.0 | 0.00 | 0.65 | 0.05 | 92 | 1010.9 |
| 20260505024722 | 53 | 11 | 6.0 | 11.0 | 0.00 | 0.65 | 0.05 | 92 | 1010.9 |
| 20260505024221 | 53 | 32 | 7.0 | 11.0 | 0.00 | 0.65 | 0.05 | 92 | 1010.9 |
| 20260505023749 | 53 | 10 | 4.0 | 10.0 | 0.00 | 0.65 | 0.05 | 92 | 1011.1 |
| 20260505023225 | 53 | 21 | 5.0 | 10.0 | 0.00 | 0.65 | 0.05 | 92 | 1011.1 |
| 20260505022719 | 53 | 0 | 4.0 | 10.0 | 0.00 | 0.65 | 0.05 | 92 | 1011.0 |
| 20260505022219 | 53 | 8 | 2.0 | 7.0 | 0.00 | 0.65 | 0.05 | 92 | 1011.0 |
| 20260505021739 | 53 | 8 | 3.0 | 7.0 | 0.00 | 0.65 | 0.05 | 92 | 1011.0 |
| 20260505021516 | 53 | 42 | 3.0 | 9.0 | 0.00 | 0.65 | 0.05 | 92 | 1011.0 |
| 20260505020717 | 53 | 25 | 3.0 | 10.0 | 0.00 | 0.65 | 0.05 | 92 | 1011.0 |
| 20260505020228 | 53 | 0 | 4.0 | 10.0 | 0.00 | 0.65 | 0.05 | 92 | 1011.0 |
| 20260505015716 | 53 | 3 | 3.0 | 11.0 | 0.00 | 0.65 | 0.05 | 92 | 1010.9 |
| 20260505015214 | 53 | 3 | 5.0 | 11.0 | 0.00 | 0.65 | 0.05 | 92 | 1010.9 |
| 20260505014714 | 53 | 358 | 5.0 | 11.0 | 0.00 | 0.65 | 0.05 | 92 | 1010.9 |
| 20260505014214 | 53 | 8 | 7.0 | 12.0 | 0.00 | 0.65 | 0.05 | 92 | 1010.9 |
| 20260505013711 | 53 | 0 | 6.0 | 12.0 | 0.00 | 0.65 | 0.05 | 92 | 1011.0 |
| 20260505013213 | 54 | 35 | 6.0 | 12.0 | 0.00 | 0.65 | 0.05 | 92 | 1011.0 |
| 20260505012710 | 54 | 27 | 5.0 | 13.0 | 0.00 | 0.65 | 0.05 | 92 | 1011.1 |
| 20260505012523 | 54 | 3 | 6.0 | 13.0 | 0.00 | 0.65 | 0.05 | 92 | 1011.1 |
| 20260505011710 | 54 | 30 | 5.0 | 13.0 | 0.00 | 0.65 | 0.05 | 92 | 1011.1 |
| 20260505011210 | 54 | 337 | 7.0 | 13.0 | 0.01 | 0.65 | 0.05 | 92 | 1011.2 |
| 20260505010708 | 54 | 6 | 5.0 | 15.0 | 0.01 | 0.65 | 0.05 | 92 | 1011.2 |
| 20260505010211 | 54 | 17 | 9.0 | 15.0 | 0.01 | 0.65 | 0.05 | 92 | 1011.2 |
| 20260505005711 | 54 | 23 | 5.0 | 11.0 | 0.01 | 0.64 | 0.05 | 92 | 1011.4 |
| 20260505005209 | 54 | 0 | 6.0 | 12.0 | 0.02 | 0.64 | 0.05 | 92 | 1011.3 |
| 20260505004708 | 54 | 20 | 5.0 | 12.0 | 0.02 | 0.64 | 0.05 | 92 | 1011.2 |
| 20260505004211 | 55 | 6 | 7.0 | 13.0 | 0.02 | 0.64 | 0.05 | 92 | 1011.3 |
| 20260505003707 | 55 | 32 | 5.0 | 13.0 | 0.03 | 0.64 | 0.05 | 92 | 1011.3 |
| 20260505003230 | 55 | 10 | 6.0 | 12.0 | 0.03 | 0.64 | 0.05 | 92 | 1011.3 |
| 20260505002708 | 55 | 6 | 5.0 | 12.0 | 0.03 | 0.64 | 0.05 | 92 | 1011.4 |
| 20260505002209 | 55 | 30 | 6.0 | 13.0 | 0.03 | 0.64 | 0.05 | 92 | 1011.4 |
| 20260505001955 | 55 | 11 | 7.0 | 13.0 | 0.03 | 0.64 | 0.05 | 92 | 1011.4 |
| 20260505001209 | 55 | 21 | 5.0 | 10.0 | 0.02 | 0.64 | 0.04 | 92 | 1011.3 |
| 20260505000713 | 55 | 25 | 4.0 | 12.0 | 0.02 | 0.64 | 0.04 | 92 | 1011.5 |
| 20260505000211 | 55 | 4 | 6.0 | 12.0 | 0.02 | 0.64 | 0.04 | 92 | 1011.4 |
| 20260504235712 | 55 | 11 | 4.0 | 9.0 | 0.02 | 0.61 | 0.04 | 92 | 1011.6 |
| 20260504235223 | 55 | 0 | 5.0 | 10.0 | 0.02 | 0.61 | 0.03 | 92 | 1011.6 |
| 20260504234720 | 56 | 6 | 5.0 | 10.0 | 0.02 | 0.61 | 0.03 | 92 | 1011.6 |
| 20260504234207 | 56 | 31 | 4.0 | 10.0 | 0.01 | 0.61 | 0.02 | 92 | 1011.7 |
| 20260504233709 | 56 | 11 | 4.0 | 9.0 | 0.00 | 0.61 | 0.02 | 92 | 1011.6 |
| 20260504233213 | 56 | 31 | 5.0 | 11.0 | 0.00 | 0.61 | 0.02 | 92 | 1011.6 |
| 20260504232704 | 56 | 24 | 5.0 | 11.0 | 0.00 | 0.61 | 0.02 | 92 | 1011.6 |
| 20260504232203 | 56 | 8 | 4.0 | 10.0 | 0.00 | 0.61 | 0.02 | 92 | 1011.6 |
| 20260504231703 | 56 | 10 | 4.0 | 9.0 | 0.01 | 0.61 | 0.02 | 92 | 1011.8 |
| 20260504231511 | 56 | 11 | 4.0 | 11.0 | 0.01 | 0.61 | 0.02 | 92 | 1011.7 |
| 20260504230706 | 56 | 18 | 4.0 | 11.0 | 0.01 | 0.61 | 0.02 | 92 | 1011.7 |
| 20260504230203 | 56 | 25 | 4.0 | 10.0 | 0.01 | 0.61 | 0.02 | 92 | 1011.7 |
| 20260504225703 | 56 | 21 | 6.0 | 10.0 | 0.02 | 0.60 | 0.02 | 92 | 1011.7 |
| 20260504225202 | 56 | 39 | 5.0 | 10.0 | 0.02 | 0.60 | 0.02 | 92 | 1011.9 |
| 20260504224703 | 56 | 47 | 3.0 | 10.0 | 0.03 | 0.60 | 0.02 | 92 | 1011.8 |
| 20260504224205 | 56 | 17 | 5.0 | 10.0 | 0.05 | 0.60 | 0.02 | 92 | 1011.9 |
| 20260504223703 | 57 | 16 | 5.0 | 10.0 | 0.07 | 0.60 | 0.02 | 92 | 1012.0 |
| 20260504223453 | 57 | 7 | 5.0 | 10.0 | 0.09 | 0.60 | 0.02 | 92 | 1011.9 |
| 20260504222841 | 57 | 24 | 4.0 | 10.0 | 0.17 | 0.60 | 0.02 | 92 | 1012.0 |
| 20260504222813 | 57 | 0 | 7.0 | 10.0 | 0.14 | 0.60 | 0.02 | 92 | 1012.0 |
| 20260504221702 | 57 | 6 | 3.0 | 6.0 | 0.17 | 0.60 | 0.01 | 92 | 1012.1 |
| 20260504221203 | 57 | 351 | 2.0 | 5.0 | 0.19 | 0.61 | 0.01 | 92 | 1012.0 |
| 20260504220955 | 57 | 336 | 2.0 | 4.0 | 0.22 | 0.61 | 0.01 | 91 | 1012.0 |
| 20260504220208 | 57 | 200 | 0.0 | 0.0 | 0.26 | 0.61 | 0.01 | 91 | 1012.1 |
| 20260504215944 | 57 | 199 | 0.0 | 0.0 | 0.33 | 0.33 | 0.61 | 91 | 1012.1 |
| 20260504215204 | 57 | 199 | 0.0 | 0.0 | 0.35 | 0.33 | 0.60 | 91 | 1012.2 |
| 20260504214702 | 57 | 199 | 0.0 | 0.0 | 0.38 | 0.33 | 0.58 | 91 | 1012.2 |
| 20260504214204 | 57 | 199 | 0.0 | 0.0 | 0.38 | 0.33 | 0.57 | 91 | 1012.4 |
| 20260504213744 | 57 | 199 | 0.0 | 0.0 | 0.33 | 0.33 | 0.51 | 91 | 1012.5 |
| 20260504213729 | 57 | 199 | 0.0 | 0.0 | 0.36 | 0.33 | 0.55 | 91 | 1012.4 |
| 20260504212702 | 57 | 200 | 0.0 | 0.0 | 0.29 | 0.33 | 0.48 | 91 | 1012.5 |
| 20260504212208 | 58 | 199 | 0.0 | 2.0 | 0.27 | 0.33 | 0.45 | 91 | 1012.5 |
| 20260504211703 | 58 | 199 | 1.0 | 3.0 | 0.26 | 0.33 | 0.44 | 91 | 1012.6 |
| 20260504211447 | 58 | 197 | 1.0 | 4.0 | 0.29 | 0.33 | 0.42 | 91 | 1012.5 |
| 20260504210707 | 58 | 197 | 3.0 | 4.0 | 0.28 | 0.33 | 0.39 | 91 | 1012.5 |
| 20260504210204 | 58 | 207 | 0.0 | 0.0 | 0.25 | 0.33 | 0.34 | 90 | 1012.5 |
| 20260504205720 | 58 | 207 | 0.0 | 0.0 | 0.17 | 0.10 | 0.27 | 90 | 1012.6 |
| 20260504205202 | 58 | 207 | 0.0 | 0.0 | 0.15 | 0.10 | 0.24 | 90 | 1012.5 |
| 20260504204708 | 58 | 207 | 0.0 | 3.0 | 0.11 | 0.10 | 0.20 | 90 | 1012.6 |
| 20260504204202 | 58 | 207 | 0.0 | 3.0 | 0.09 | 0.10 | 0.20 | 90 | 1012.6 |
| 20260504203704 | 58 | 206 | 2.0 | 3.0 | 0.09 | 0.10 | 0.19 | 90 | 1012.5 |
| 20260504203203 | 59 | 165 | 0.0 | 3.0 | 0.09 | 0.10 | 0.19 | 90 | 1012.5 |
| 20260504202942 | 59 | 164 | 0.0 | 4.0 | 0.09 | 0.10 | 0.19 | 90 | 1012.5 |
| 20260504202203 | 59 | 164 | 3.0 | 9.0 | 0.09 | 0.10 | 0.19 | 89 | 1012.4 |
| 20260504201740 | 59 | 148 | 6.0 | 19.0 | 0.03 | 0.10 | 0.12 | 89 | 1012.4 |
| 20260504201726 | 59 | 176 | 3.0 | 13.0 | 0.08 | 0.10 | 0.18 | 89 | 1012.4 |
| 20260504200706 | 59 | 134 | 10.0 | 19.0 | 0.01 | 0.10 | 0.11 | 88 | 1012.1 |
| 20260504200202 | 60 | 35 | 6.0 | 11.0 | 0.00 | 0.10 | 0.10 | 88 | 1012.2 |
| 20260504195701 | 60 | 42 | 4.0 | 6.0 | 0.00 | 0.10 | 0.10 | 88 | 1012.1 |
| 20260504195202 | 60 | 42 | 3.0 | 5.0 | 0.00 | 0.10 | 0.10 | 88 | 1012.1 |
| 20260504194704 | 60 | 35 | 2.0 | 5.0 | 0.00 | 0.10 | 0.10 | 88 | 1012.0 |
| 20260504194203 | 60 | 28 | 2.0 | 6.0 | 0.00 | 0.10 | 0.10 | 88 | 1012.1 |
| 20260504193702 | 60 | 23 | 3.0 | 9.0 | 0.00 | 0.10 | 0.10 | 87 | 1011.9 |
| 20260504193202 | 60 | 23 | 3.0 | 9.0 | 0.00 | 0.10 | 0.10 | 87 | 1011.9 |
| 20260504192702 | 60 | 16 | 5.0 | 7.0 | 0.00 | 0.10 | 0.10 | 87 | 1011.8 |
| 20260504192456 | 60 | 24 | 4.0 | 9.0 | 0.00 | 0.10 | 0.10 | 87 | 1011.8 |
| 20260504191702 | 60 | 7 | 4.0 | 9.0 | 0.00 | 0.10 | 0.10 | 86 | 1011.9 |
| 20260504191202 | 61 | 1 | 4.0 | 7.0 | 0.00 | 0.10 | 0.10 | 86 | 1011.8 |
| 20260504190704 | 61 | 11 | 3.0 | 7.0 | 0.00 | 0.10 | 0.10 | 86 | 1011.8 |
| 20260504190202 | 61 | 3 | 4.0 | 9.0 | 0.00 | 0.10 | 0.10 | 87 | 1011.9 |
| 20260504185704 | 61 | 16 | 5.0 | 9.0 | 0.00 | 0.10 | 0.10 | 86 | 1011.9 |
| 20260504185202 | 61 | 20 | 1.0 | 6.0 | 0.00 | 0.10 | 0.10 | 87 | 1011.9 |
| 20260504184948 | 62 | 97 | 0.0 | 0.0 | 0.00 | 0.10 | 0.10 | 87 | 1011.7 |
| 20260504184445 | 62 | 97 | 0.0 | 0.0 | 0.00 | 0.21 | 0.10 | 87 | 1011.8 |
| 20260504183702 | 62 | 97 | 0.0 | 0.0 | 0.00 | 0.21 | 0.10 | 87 | 1011.8 |
| 20260504183449 | 62 | 97 | 0.0 | 0.0 | 0.00 | 0.21 | 0.10 | 87 | 1011.7 |
| 20260504182702 | 62 | 97 | 0.0 | 0.0 | 0.00 | 0.21 | 0.10 | 87 | 1011.8 |
| 20260504182453 | 62 | 97 | 0.0 | 0.0 | 0.00 | 0.21 | 0.10 | 86 | 1011.8 |
| 20260504181702 | 62 | 97 | 0.0 | 0.0 | 0.00 | 0.21 | 0.10 | 86 | 1011.8 |
| 20260504181202 | 62 | 99 | 0.0 | 0.0 | 0.00 | 0.21 | 0.10 | 86 | 1011.8 |
| 20260504180704 | 62 | 97 | 0.0 | 0.0 | 0.00 | 0.21 | 0.10 | 86 | 1011.8 |
| 20260504180202 | 62 | 99 | 0.0 | 0.0 | 0.00 | 0.21 | 0.10 | 87 | 1011.8 |
| 20260504175945 | 62 | 99 | 0.0 | 0.0 | 0.00 | 0.21 | 0.10 | 88 | 1011.8 |
| 20260504175201 | 62 | 100 | 0.0 | 0.0 | 0.00 | 0.21 | 0.10 | 88 | 1011.8 |
| 20260504174951 | 62 | 100 | 0.0 | 0.0 | 0.00 | 0.21 | 0.10 | 88 | 1011.9 |
| 20260504174204 | 62 | 100 | 0.0 | 0.0 | 0.00 | 0.21 | 0.10 | 88 | 1012.0 |
| 20260504173702 | 62 | 100 | 0.0 | 0.0 | 0.00 | 0.21 | 0.10 | 88 | 1011.9 |
| 20260504173203 | 62 | 100 | 0.0 | 0.0 | 0.00 | 0.21 | 0.10 | 88 | 1012.0 |
| 20260504172702 | 62 | 100 | 0.0 | 0.0 | 0.00 | 0.21 | 0.10 | 88 | 1012.0 |
| 20260504172202 | 62 | 100 | 0.0 | 0.0 | 0.00 | 0.22 | 0.10 | 88 | 1012.0 |
| 20260504171704 | 62 | 100 | 0.0 | 0.0 | 0.01 | 0.22 | 0.10 | 88 | 1012.0 |
| 20260504171448 | 62 | 100 | 0.0 | 0.0 | 0.02 | 0.22 | 0.10 | 88 | 1012.0 |
| 20260504170820 | 62 | 100 | 0.0 | 0.0 | 0.02 | 0.22 | 0.10 | 87 | 1011.9 |
| 20260504170813 | 62 | 100 | 0.0 | 0.0 | 0.02 | 0.20 | 0.10 | 88 | 1011.9 |
| 20260504170754 | 62 | 100 | 0.0 | 0.0 | 0.02 | 0.22 | 0.10 | 88 | 1011.9 |